Theta_e
325 329 329 328 329 330 330 332 334 336 336 341 342 343 342 340 338 336 335 335 335 334 336 333 332 329 328 328 328 329 325 323 312 313 316 317 318 318 319 320 320 320 320 319
327 328 327 325 327 329 332 335 337 336 337 339 340 339 336 340 341 340 338 336 336 337 338 337 336 333 331 329 329 332 331 327 319 313 314 316 318 318 320 320 320 321 320 319
328 328 325 326 329 333 335 336 336 336 337 337 335 337 336 338 341 342 341 340 340 340 340 338 339 338 335 329 329 332 332 329 328 316 313 315 315 316 319 320 320 321 320 320
328 326 326 328 329 333 336 331 333 337 338 339 334 338 338 339 340 339 341 342 342 342 342 341 340 336 336 331 331 333 330 330 329 326 316 313 314 315 318 320 321 321 320 319
329 328 328 328 328 330 334 334 337 336 339 338 340 339 337 338 339 337 336 335 335 335 334 334 335 335 333 332 334 334 332 327 329 330 322 314 313 313 316 318 319 319 319 319
327 324 326 328 331 333 334 334 333 334 335 337 338 341 338 338 337 337 336 335 335 333 334 334 335 335 334 332 334 335 329 326 330 331 325 317 314 314 314 314 315 316 318 319
328 328 325 326 333 333 333 337 336 335 335 335 336 342 338 338 335 336 335 335 334 333 335 334 334 334 333 333 334 335 327 326 331 332 326 320 318 318 317 316 316 316 317 317
329 328 327 327 333 335 335 336 336 337 335 334 333 339 335 335 333 334 335 335 333 335 335 334 335 334 333 334 335 334 326 328 327 333 328 322 320 320 319 318 318 318 318 319
329 328 326 332 331 333 335 337 333 337 333 335 334 335 334 334 336 335 336 334 334 336 334 334 336 335 334 334 335 331 328 328 329 333 328 324 322 322 321 320 320 320 320 320
330 329 325 329 332 333 334 332 337 335 337 335 334 337 337 336 338 336 336 334 334 336 335 334 336 336 335 334 334 335 330 334 334 333 329 326 324 323 322 322 321 320 321 321
327 331 328 330 333 334 336 337 335 335 336 336 338 335 335 335 338 336 335 334 333 333 333 333 335 336 336 335 335 335 332 335 333 332 330 327 325 324 324 323 321 320 321 321
327 333 331 330 329 329 332 335 337 336 337 337 338 338 332 337 335 334 334 334 332 331 330 331 333 334 333 334 334 334 334 335 334 332 330 328 326 325 324 324 322 320 321 321
332 336 336 335 333 331 334 334 333 335 337 342 339 335 333 336 336 334 334 334 331 330 332 333 332 332 332 334 333 333 334 334 334 332 329 327 324 323 322 322 322 320 320 321
331 333 336 330 333 332 335 333 334 336 339 338 337 337 336 336 337 336 334 333 331 331 332 332 332 333 332 334 333 333 334 334 333 332 328 325 319 317 318 319 319 320 320 320
334 336 333 332 330 334 334 334 334 336 336 337 335 336 336 337 337 335 334 333 328 330 330 331 333 333 332 334 334 333 333 333 332 329 327 321 321 321 321 321 321 321 321 320
333 337 336 335 333 335 335 333 335 335 334 334 335 338 337 337 334 335 333 332 330 332 331 329 332 333 332 333 333 333 332 331 330 328 324 322 323 323 322 321 322 324 324 325
338 340 339 337 334 334 333 334 337 337 338 339 339 338 337 337 336 335 332 331 331 331 330 330 331 332 333 333 333 330 329 328 328 325 323 323 323 321 321 324 326 326 324 318
340 340 338 338 337 335 333 335 336 337 338 339 338 338 336 336 335 332 332 332 331 331 329 330 331 332 331 331 331 329 328 327 325 323 323 322 323 324 325 326 324 318 313 313
335 340 339 340 337 334 334 335 336 335 337 338 338 336 336 334 334 334 330 330 329 331 332 328 329 331 330 329 330 329 326 324 323 324 326 326 327 327 325 316 312 313 313 312
333 334 337 336 337 337 335 336 334 332 339 334 336 337 337 335 337 336 333 332 333 333 332 328 328 329 329 330 329 328 324 325 325 326 326 327 325 317 310 311 312 312 311 312
338 338 340 337 339 337 332 334 334 340 340 335 337 338 337 337 337 334 332 330 331 332 333 330 328 327 328 328 327 325 325 325 326 326 323 316 309 310 311 312 310 310 312 312
338 339 341 339 340 338 334 338 338 338 337 337 338 337 337 335 331 331 332 332 331 331 333 330 329 328 327 325 324 325 325 326 324 315 308 308 310 310 310 309 309 311 311 310
338 336 337 339 337 336 331 336 335 335 337 337 335 335 334 333 331 332 333 333 333 332 333 330 329 328 327 325 325 325 325 322 309 307 308 309 310 309 309 309 310 310 309 307
333 333 338 338 336 334 334 332 331 332 332 331 334 335 335 333 332 332 334 333 332 332 331 330 329 328 325 325 325 325 316 308 307 307 309 309 308 310 310 310 310 309 308 308
335 335 338 337 335 333 332 331 331 331 330 329 329 332 332 333 334 332 330 331 332 333 332 330 329 328 326 325 323 312 307 307 307 308 308 309 309 310 310 310 309 309 307 306
333 338 337 335 334 333 332 330 329 329 331 330 330 332 331 333 333 329 326 327 332 333 333 331 329 327 326 324 312 307 306 307 308 308 309 309 309 309 309 308 309 309 307 307
Wind_Speed
2 2 5 6 6 6 5 6 5 3 3 6 11 18 19 16 15 21 22 21 25 26 24 23 21 22 20 17 10 9 10 12 10 9 9 10 9 9 9 9 10 11 12 12
1 1 3 6 2 4 4 3 2 1 2 7 6 14 11 4 9 14 18 23 26 27 27 26 28 24 24 21 12 7 8 13 11 10 10 10 9 10 10 12 12 12 12 12
1 4 5 3 3 1 1 2 2 2 2 2 11 3 3 2 7 8 13 19 21 23 26 25 36 32 28 23 12 5 10 13 12 11 11 11 11 12 11 13 13 13 13 13
1 3 5 8 4 1 3 6 2 1 3 4 7 6 2 5 9 6 10 9 13 17 20 25 26 24 30 26 20 8 16 16 14 10 10 10 10 12 13 14 12 12 13 12
0 4 8 6 5 1 1 3 4 3 3 2 6 4 5 5 6 11 9 9 9 12 14 19 15 15 22 26 27 19 14 17 14 8 8 8 9 11 12 12 13 12 12 12
2 3 2 2 4 2 8 2 4 2 0 3 3 3 4 5 6 9 10 11 14 16 17 18 13 5 10 17 23 20 17 18 14 6 6 6 7 9 11 10 11 12 12 13
1 2 3 2 2 4 1 2 2 3 4 5 2 3 6 7 5 8 11 14 16 17 19 16 14 5 6 17 24 15 19 18 10 8 5 4 4 5 7 8 10 9 10 10
1 3 2 1 2 1 2 1 2 4 5 8 1 3 4 3 9 6 7 9 16 19 20 17 14 7 2 12 18 16 15 14 10 11 6 4 3 4 6 8 8 8 8 9
5 4 1 3 1 2 4 2 3 4 0 3 2 4 8 3 6 5 7 12 17 18 21 20 16 10 3 7 13 20 9 9 11 11 9 4 4 4 6 7 7 9 9 10
5 4 0 1 1 9 1 6 1 1 3 8 4 4 6 4 8 8 6 11 12 13 18 19 15 10 5 4 15 21 9 5 8 12 10 5 6 6 7 9 9 9 10 11
5 3 2 2 4 1 3 2 4 1 2 4 4 6 4 5 7 7 4 7 10 12 15 15 12 10 4 4 15 20 13 2 1 5 7 5 6 9 11 11 10 9 11 12
3 3 3 1 2 2 1 1 2 2 2 1 3 4 3 4 4 3 5 5 6 10 12 11 8 5 5 3 10 15 21 14 5 3 5 4 8 12 14 12 10 11 11 13
7 1 2 4 4 3 2 2 3 4 1 5 3 5 1 4 5 5 6 6 7 9 11 11 10 7 5 3 4 5 8 12 9 4 1 6 9 12 11 10 10 11 12 15
3 3 1 0 2 1 2 0 2 1 2 2 5 10 7 4 4 1 4 5 7 13 17 16 12 5 5 6 7 5 4 4 5 1 3 5 7 7 6 6 7 9 13 17
2 3 0 2 2 0 4 4 3 5 4 5 4 6 10 6 3 1 2 1 8 12 15 19 15 10 8 11 10 8 6 4 2 3 3 2 4 7 8 9 11 14 17 19
2 3 1 0 3 2 5 4 3 5 3 9 9 11 4 2 1 4 4 2 9 7 11 15 12 8 9 10 9 9 6 5 5 1 2 4 7 10 12 12 13 16 16 17
1 4 2 2 2 2 4 4 3 2 3 3 6 5 9 3 2 2 1 5 5 6 9 9 8 6 6 7 8 7 6 6 3 1 4 8 11 12 12 14 16 16 15 15
3 3 1 2 1 4 2 2 4 6 5 4 8 6 6 6 5 5 5 5 5 3 4 5 5 5 6 6 5 5 6 5 2 4 8 9 10 12 14 15 14 14 14 12
2 3 2 2 3 4 3 1 2 2 5 7 5 8 8 5 6 2 12 10 6 2 1 3 4 5 4 3 3 4 5 4 4 7 9 10 11 12 13 13 12 11 11 12
5 5 1 2 2 3 2 1 2 2 4 5 8 12 9 5 6 5 14 5 10 5 3 3 5 4 2 2 2 2 3 5 7 10 10 11 12 12 10 10 9 11 11 10
2 2 1 2 2 3 2 2 0 3 3 10 7 10 7 4 4 16 20 15 14 10 8 6 6 5 3 3 1 2 5 6 8 9 10 11 9 8 8 7 10 9 9 10
1 1 1 1 2 2 3 2 3 2 8 8 8 7 4 6 14 19 19 11 12 15 13 11 8 6 5 4 2 4 5 6 8 8 9 7 7 7 7 8 9 9 9 11
1 1 1 4 2 2 5 9 10 15 11 9 11 9 10 14 19 21 19 16 14 11 16 14 9 6 6 6 3 4 6 6 6 7 6 5 5 6 6 8 9 9 10 13
3 3 3 2 1 7 9 13 14 12 12 15 15 13 13 18 21 20 15 13 6 13 15 11 8 5 6 6 3 4 4 5 5 5 5 5 5 4 6 7 9 9 12 11
1 7 3 5 11 10 1 8 12 14 19 17 13 10 10 13 13 10 8 5 6 13 12 9 8 7 6 4 4 4 4 3 3 3 4 5 4 4 5 7 6 9 12 12
8 5 4 6 2 4 10 11 17 17 13 13 9 8 11 10 6 3 4 3 6 12 9 9 9 7 4 5 5 5 3 2 2 3 3 4 3 4 4 6 5 8 11 12
Wind_Direction
47 240 341 336 243 279 253 258 280 270 352 250 260 276 291 289 243 243 238 237 243 246 258 262 259 251 247 248 256 310 333 332 324 305 295 295 289 293 292 297 301 304 323 334
224 263 354 301 258 194 197 262 329 224 44 218 294 285 303 300 284 263 247 242 246 254 258 265 268 258 248 247 242 296 320 313 320 303 296 294 301 299 286 293 300 301 311 320
309 312 342 358 83 35 188 296 201 287 132 102 320 276 333 304 306 291 253 251 257 265 274 264 267 263 254 236 221 273 290 284 299 303 307 306 311 304 299 303 296 302 303 312
234 304 345 355 27 345 15 336 260 87 315 350 353 342 341 340 322 295 294 284 288 286 288 287 278 258 251 220 211 179 229 261 266 293 310 303 311 307 299 303 300 297 304 313
282 304 345 333 353 238 21 118 88 54 57 290 6 287 20 334 342 344 359 37 9 355 337 330 308 234 244 226 224 241 229 226 244 270 318 312 317 312 307 307 309 305 309 317
278 284 253 291 58 60 144 78 58 80 293 8 338 316 337 335 324 316 346 18 16 13 0 3 9 323 249 219 221 227 210 219 234 255 301 326 331 327 319 318 325 315 316 318
289 274 281 211 184 122 65 19 349 351 359 354 337 260 289 304 307 307 333 6 21 19 15 18 15 10 211 201 210 203 211 219 231 249 270 318 343 345 342 342 335 322 324 328
202 206 223 174 252 134 95 205 347 335 349 343 178 288 352 306 313 311 325 21 28 26 25 29 33 32 187 206 202 189 216 231 231 236 243 283 334 6 3 354 345 338 334 331
176 248 294 1 139 285 145 200 85 113 134 285 341 274 274 320 331 334 345 23 30 24 29 38 41 44 46 203 194 198 222 255 256 234 233 269 319 340 350 343 348 348 340 337
193 239 194 165 131 59 280 129 191 120 303 319 312 279 315 337 339 350 336 13 27 31 34 38 41 47 56 184 194 208 227 284 226 211 223 259 311 302 309 322 344 332 331 331
145 206 175 218 212 239 160 180 68 85 302 295 305 324 202 272 318 318 329 7 12 26 29 31 38 39 53 183 214 211 207 67 359 217 227 254 306 307 301 309 330 323 321 322
162 146 199 233 48 307 46 85 180 312 283 229 301 278 172 259 314 300 339 342 12 34 22 17 18 24 28 289 244 235 236 245 329 306 237 294 321 314 313 304 310 314 317 323
178 60 158 157 156 128 81 119 113 100 105 210 274 327 188 274 264 241 317 346 5 37 30 23 4 3 8 27 184 245 253 242 276 291 294 354 339 324 316 303 301 308 311 316
114 104 97 292 67 326 294 69 130 145 240 175 250 310 321 305 252 360 300 328 4 33 32 33 28 44 64 92 121 122 148 187 216 236 22 13 355 352 336 325 321 317 318 320
66 98 321 216 128 191 290 278 183 212 247 248 332 273 308 341 25 9 309 328 49 33 27 29 36 68 87 109 100 103 107 101 106 119 31 352 351 354 353 340 330 325 323 321
17 131 179 131 125 297 274 250 263 229 240 254 275 284 1 312 220 244 254 20 52 50 34 35 36 81 99 111 96 86 85 90 116 47 289 313 324 329 328 331 339 337 331 331
42 141 146 250 5 306 263 242 248 238 236 272 291 360 335 310 259 254 266 31 15 30 44 30 42 85 101 108 105 103 109 108 101 337 308 313 322 329 332 334 336 339 342 346
141 120 181 242 273 263 50 358 261 257 267 250 281 288 298 284 296 306 308 348 17 27 50 50 58 96 108 106 116 106 87 61 16 329 322 328 331 330 330 335 343 347 355 9
25 141 123 250 235 319 150 120 311 326 302 219 264 280 284 269 282 68 3 328 341 340 56 102 100 109 104 100 126 82 44 22 347 340 342 336 332 334 338 343 355 10 11 2
75 67 292 146 248 275 74 130 330 225 291 216 236 291 316 292 266 18 4 339 1 328 206 174 145 129 102 122 111 37 358 2 337 336 339 337 335 338 353 12 12 5 7 13
21 18 56 142 253 280 252 229 270 247 357 341 295 307 325 285 298 313 318 302 283 314 245 210 172 165 164 167 149 334 327 337 321 333 337 338 343 10 18 18 2 23 27 20
12 15 90 135 257 280 176 200 236 8 327 327 314 294 287 290 308 321 335 292 285 287 231 201 189 174 185 200 226 290 302 321 327 334 340 353 9 17 12 19 45 36 21 5
214 266 328 224 294 292 255 260 284 301 301 304 304 282 268 276 289 309 313 303 299 234 200 195 193 193 210 223 238 289 310 321 335 344 359 13 9 7 39 49 42 28 12 7
211 181 243 273 87 263 293 299 303 317 322 313 291 278 278 288 294 296 307 306 259 196 189 192 199 204 210 229 251 299 319 337 355 11 19 9 13 48 45 39 28 21 15 15
92 156 216 251 278 294 344 351 334 328 328 322 304 292 292 307 308 312 345 350 208 199 197 207 225 219 221 249 298 325 326 339 23 30 26 20 46 39 36 21 23 19 14 11
190 198 210 269 250 252 294 318 322 321 334 338 329 298 293 311 313 322 316 305 215 214 211 233 224 228 249 289 310 321 308 299 30 35 24 21 31 15 15 10 358 9 5 357